Location: Deep Valley
(39.7548°N, 80.4695°W)
Time: 05:59:24
(UTC+00:00)

X-37B - Visible Passes

Search period start: 25 November 2020 00:00
Search period end: 05 December 2020 00:00
Orbit: 384 x 389 km, 45.0° (Epoch: 12 November)

Date Brightness Start Highest point End Pass type
(mag) Time Alt. Az. Time Alt. Az. Time Alt. Az.
25 Nov 2.7 23:01:44 10° S 23:03:32 14° SE 23:04:30 13° ESE visible
26 Nov 4.1 00:36:37 10° WSW 00:36:47 11° WSW 00:36:47 11° WSW visible
26 Nov 1.1 23:38:10 10° SW 23:41:02 48° SSE 23:41:02 48° SSE visible
27 Nov 2.0 22:40:04 10° SSW 22:42:47 26° SE 22:45:13 12° E visible
28 Nov 3.1 00:16:08 10° W 00:17:30 23° W 00:17:30 23° W visible
28 Nov 0.5 23:17:29 10° WSW 23:20:39 90° SSE 23:21:38 41° ENE visible
29 Nov 2.1 23:55:47 10° W 23:58:00 32° NW 23:58:00 32° NW visible
30 Nov 0.9 22:57:00 10° W 23:00:08 56° NNW 23:02:04 20° NE visible
01 Dec 4.1 00:34:17 10° WNW 00:34:20 10° WNW 00:34:20 10° WNW visible
01 Dec 1.7 23:35:29 10° WNW 23:38:22 32° N 23:38:22 32° N visible
02 Dec 1.4 22:36:40 10° W 22:39:40 39° NNW 22:42:25 12° ENE visible
03 Dec 3.4 00:13:52 10° WNW 00:14:41 16° NW 00:14:41 16° NW visible
03 Dec 1.8 23:15:09 10° WNW 23:17:59 29° N 23:18:44 26° NNE visible
04 Dec 2.4 23:53:21 10° WNW 23:55:05 25° NW 23:55:05 25° NW visible
